Weather History for Grosse Ile, MI

Change the Weather History Date:

Tuesday, April 23, 2013

  Actual Average (KDTW) Record (KDTW)
Temperature  
Mean Temperature 53 °F 52 °F  
Max Temperature 62 °F 62 °F 88 °F (1925)
Min Temperature 44 °F 42 °F 23 °F (1986)
Degree Days  
Heating Degree Days 12 13  
Month to date heating degree days 396  
Since 1 July heating degree days 5811  
Cooling Degree Days 0 0  
Month to date cooling degree days 0  
Year to date cooling degree days 0  
Growing Degree Days 3 (Base 50)    
Moisture  
Dew Point 43 °F    
Average Humidity 68    
Maximum Humidity 94    
Minimum Humidity 48    
Precipitation  
Precipitation 0.20 in 0.10 in 0.96 in (1977)
Month to date precipitation 2.22  
Year to date precipitation 8.48  
Snow  
Snow 0.00 in 0.00 in 1.20 in (2005)
Month to date snowfall 1.6  
Since 1 July snowfall 42.4  
Snow Depth -    
Sea Level Pressure  
Sea Level Pressure 30.01 in    
Wind  
Wind Speed 5 mph (SSE)    
Max Wind Speed 16 mph    
Max Gust Speed 29 mph    
Visibility 9 miles    
Events Rain    
T = Trace of Precipitation, MM = Missing Value Source: NWS Daily Summary

Daily Weather History Graph

Daily Weather History Graph

Search for Another Location

Airport:

Trip Planner

Search our weather history database for the weather conditions in past years. The results will help you decide how hot, cold, wet, or windy it might be!

Date:

Astronomy

Apr. 23, 2013 Rise Set
Actual Time 6:39 AM EDT 8:23 PM EDT
Civil Twilight 6:09 AM EDT 8:52 PM EDT
Nautical Twilight 5:33 AM EDT 9:29 PM EDT
Astronomical Twilight 4:54 AM EDT 10:08 PM EDT
Moon 6:15 PM EDT (4/23) 5:09 AM EDT (4/23)
Length of Visible Light 14h 43m
Length of Day
13h 43m
Waxing Gibbous, 94% of the Moon is Illuminated
Apr 23
Waxing Gibbous
Apr 25
Full
May 2
Last Quarter
May 9
New
May 18
First Quarter

Hourly Weather History & Observations

Time (EDT) Temp. Windchill Dew Point Humidity Pressure Visibility Wind Dir Wind Speed Gust Speed Precip Events Conditions
12:14 AM 46.4 °F - 33.8 °F 62% 30.18 in 10.0 mi Calm Calm - N/A   Clear
12:34 AM 46.4 °F - 33.8 °F 62% 30.17 in 10.0 mi Calm Calm - N/A   Clear
12:54 AM 44.6 °F 43.1 °F 33.8 °F 66% 30.17 in 10.0 mi East 3.5 mph - N/A   Clear
1:14 AM 44.6 °F - 35.6 °F 71% 30.17 in 10.0 mi Calm Calm - N/A   Clear
1:34 AM 46.4 °F - 35.6 °F 66% 30.16 in 10.0 mi Calm Calm - N/A   Clear
1:54 AM 46.4 °F 45.2 °F 35.6 °F 66% 30.15 in 10.0 mi East 3.5 mph - N/A   Clear
2:14 AM 48.2 °F - 37.4 °F 66% 30.15 in 10.0 mi Calm Calm - N/A   Clear
2:34 AM 51.8 °F - 37.4 °F 58% 30.14 in 10.0 mi SE 6.9 mph - N/A   Clear
2:54 AM 51.8 °F - 37.4 °F 58% 30.13 in 10.0 mi SE 9.2 mph 16.1 mph N/A   Clear
3:14 AM 50.0 °F - 37.4 °F 62% 30.13 in 10.0 mi SSE 9.2 mph - N/A   Clear
3:34 AM 50.0 °F - 37.4 °F 62% 30.13 in 10.0 mi SSE 9.2 mph - N/A   Clear
3:54 AM 50.0 °F - 37.4 °F 62% 30.12 in 10.0 mi SSE 9.2 mph - N/A   Clear
4:14 AM 50.0 °F - 37.4 °F 62% 30.12 in 10.0 mi SSE 6.9 mph - N/A   Clear
4:34 AM 48.2 °F - 37.4 °F 66% 30.11 in 10.0 mi SSE 6.9 mph - N/A   Clear
4:54 AM 48.2 °F - 37.4 °F 66% 30.11 in 10.0 mi SSE 8.1 mph - N/A   Clear
5:14 AM 48.2 °F - 39.2 °F 71% 30.11 in 10.0 mi SSE 5.8 mph - N/A   Clear
5:34 AM 46.4 °F 42.9 °F 39.2 °F 76% 30.11 in 10.0 mi SSE 6.9 mph - N/A   Clear
6:14 AM 46.4 °F 42.4 °F 37.4 °F 71% 30.09 in 10.0 mi SE 8.1 mph - N/A   Clear
6:34 AM 46.4 °F 42.9 °F 37.4 °F 71% 30.08 in 10.0 mi SE 6.9 mph - N/A   Clear
6:54 AM 46.4 °F 42.4 °F 37.4 °F 71% 30.07 in 10.0 mi SE 8.1 mph - N/A   Clear
7:14 AM 48.2 °F - 37.4 °F 66% 30.08 in 10.0 mi SSE 8.1 mph - N/A   Clear
7:34 AM 48.2 °F - 37.4 °F 66% 30.09 in 10.0 mi SSE 8.1 mph - N/A   Clear
7:55 AM 48.2 °F - 39.2 °F 71% 30.09 in 10.0 mi SSE 5.8 mph - N/A   Clear
8:14 AM 48.2 °F - 39.2 °F 71% 30.10 in 10.0 mi SSE 9.2 mph - N/A   Clear
8:34 AM 48.2 °F - 37.4 °F 66% 30.10 in 10.0 mi SSE 9.2 mph - N/A   Clear
8:54 AM 50.0 °F - 37.4 °F 62% 30.09 in 10.0 mi SSE 9.2 mph - N/A   Clear
9:14 AM 50.0 °F - 39.2 °F 66% 30.09 in 10.0 mi SSE 9.2 mph - N/A   Clear
9:34 AM 50.0 °F - 39.2 °F 66% 30.09 in 10.0 mi SSE 8.1 mph - N/A   Clear
9:54 AM 50.0 °F - 39.2 °F 66% 30.08 in 10.0 mi SSE 6.9 mph - N/A   Clear
10:14 AM 51.8 °F - 39.2 °F 62% 30.08 in 10.0 mi SSE 8.1 mph - N/A   Clear
10:34 AM 53.6 °F - 39.2 °F 58% 30.08 in 10.0 mi SSE 6.9 mph - N/A   Clear
10:54 AM 51.8 °F - 39.2 °F 62% 30.06 in 10.0 mi SE 8.1 mph - N/A   Clear
11:14 AM 53.6 °F - 39.2 °F 58% 30.05 in 10.0 mi SSE 8.1 mph - N/A   Clear
11:34 AM 53.6 °F - 39.2 °F 58% 30.05 in 10.0 mi SSE 8.1 mph - N/A   Clear
11:54 AM 55.4 °F - 41.0 °F 58% 30.04 in 10.0 mi SSE 5.8 mph - N/A   Clear
12:14 PM 55.4 °F - 42.8 °F 63% 30.04 in 10.0 mi SSE 5.8 mph - N/A   Clear
12:34 PM 55.4 °F - 41.0 °F 58% 30.03 in 10.0 mi SSE 5.8 mph - N/A   Clear
12:54 PM 57.2 °F - 42.8 °F 59% 30.02 in 10.0 mi South 5.8 mph - N/A   Clear
1:14 PM 57.2 °F - 42.8 °F 59% 30.01 in 10.0 mi South 4.6 mph - N/A   Mostly Cloudy
1:34 PM 57.2 °F - 42.8 °F 59% 30.00 in 10.0 mi South 5.8 mph - N/A   Mostly Cloudy
1:54 PM 57.2 °F - 44.6 °F 63% 29.98 in 10.0 mi South 6.9 mph - N/A   Mostly Cloudy
2:14 PM 59.0 °F - 42.8 °F 55% 29.97 in 10.0 mi SSE 8.1 mph - N/A   Scattered Clouds
2:35 PM 60.8 °F - 42.8 °F 52% 29.96 in 10.0 mi SSE 10.4 mph - N/A   Scattered Clouds
2:54 PM 62.6 °F - 42.8 °F 48% 29.94 in 10.0 mi SSE 11.5 mph - N/A   Scattered Clouds
3:14 PM 62.6 °F - 42.8 °F 48% 29.94 in 10.0 mi SSE 11.5 mph 17.3 mph N/A   Scattered Clouds
3:34 PM 62.6 °F - 42.8 °F 48% 29.93 in 10.0 mi SSE 11.5 mph - N/A   Scattered Clouds
3:54 PM 62.6 °F - 42.8 °F 48% 29.91 in 10.0 mi SSE 9.2 mph - N/A   Scattered Clouds
4:14 PM 62.6 °F - 44.6 °F 52% 29.91 in 10.0 mi SSE 9.2 mph - N/A   Scattered Clouds
4:34 PM 60.8 °F - 44.6 °F 55% 29.90 in 10.0 mi South 8.1 mph - N/A   Scattered Clouds
4:54 PM 59.0 °F - 46.4 °F 63% 29.89 in 10.0 mi South 6.9 mph - N/A   Scattered Clouds
5:14 PM 57.2 °F - 46.4 °F 67% 29.89 in 10.0 mi South 8.1 mph - N/A   Clear
5:34 PM 55.4 °F - 46.4 °F 72% 29.88 in 10.0 mi South 8.1 mph - N/A   Scattered Clouds
5:54 PM 59.0 °F - 46.4 °F 63% 29.87 in 10.0 mi South 10.4 mph - N/A   Clear
6:14 PM 57.2 °F - 46.4 °F 67% 29.86 in 10.0 mi South 8.1 mph - N/A   Scattered Clouds
6:34 PM 57.2 °F - 46.4 °F 67% 29.87 in 10.0 mi South 8.1 mph - N/A   Mostly Cloudy
6:54 PM 60.8 °F - 50.0 °F 68% 29.89 in 5.0 mi SW 16.1 mph 28.8 mph 0.01 in Rain Rain
7:14 PM 59.0 °F - 53.6 °F 82% 29.89 in 10.0 mi SW 6.9 mph - 0.02 in Rain Light Rain
7:34 PM 57.2 °F - 53.6 °F 88% 29.90 in 7.0 mi WSW 6.9 mph - 0.05 in Rain Heavy Rain
7:54 PM 57.2 °F - 53.6 °F 88% 29.89 in 10.0 mi West 8.1 mph - 0.10 in Rain Rain
8:14 PM 57.2 °F - 53.6 °F 88% 29.88 in 10.0 mi Calm Calm - N/A Rain Rain
8:34 PM 57.2 °F - 53.6 °F 88% 29.88 in 10.0 mi Calm Calm - 0.01 in Rain Rain
8:54 PM 55.4 °F - 53.6 °F 94% 29.88 in 10.0 mi South 4.6 mph - 0.01 in Rain Rain
9:14 PM 55.4 °F - 51.8 °F 88% 29.89 in 7.0 mi Calm Calm - 0.01 in Rain Light Rain
9:34 PM 53.6 °F - 51.8 °F 94% 29.88 in 7.0 mi South 3.5 mph - 0.02 in Rain Light Rain
9:54 PM 53.6 °F - 51.8 °F 94% 29.87 in 5.0 mi Calm Calm - 0.03 in Rain Light Rain
10:14 PM 53.6 °F - 51.8 °F 94% 29.85 in 4.0 mi Calm Calm - N/A   Overcast
10:34 PM 53.6 °F - 51.8 °F 94% 29.85 in 4.0 mi Calm Calm - N/A   Overcast
10:54 PM 55.4 °F - 51.8 °F 88% 29.85 in 4.0 mi Calm Calm - 0.02 in Rain Heavy Rain
11:14 PM 53.6 °F - 51.8 °F 94% 29.83 in 2.0 mi Calm Calm - 0.02 in Rain Light Rain
11:34 PM 55.4 °F - 51.8 °F 88% 29.82 in 3.0 mi Calm Calm - 0.02 in Rain Light Rain
11:54 PM 55.4 °F - 51.8 °F 88% 29.81 in 4.0 mi SE 5.8 mph - 0.03 in Rain Light Rain